Regional Weather Roundup
Issued by NWS

Home | Current Version | Previous Version | Graphics & Text | Print | Product List | Glossary On
Versions: 1 2 3 4 5 6 7 8 9 10 11 12 13 14 15 16 17 18 19 20 21 22 23 24 25 26 27 28 29 30 31 32 33 34 35 36 37 38 39 40 41 42 43 44 45 46 47 48 49 50
151
ASUS43 KLOT 281312
RWRIL

ILLINOIS REGIONAL WEATHER ROUNDUP
NATIONAL WEATHER SERVICE CHICAGO/ROMEOVILLE IL
700 AM CST TUE FEB 28 2017

NOTE: "FAIR" INDICATES FEW OR NO CLOUDS BELOW 12,000 FEET WITH NO
SIGNIFICANT WEATHER AND/OR OBSTRUCTIONS TO VISIBILITY.

* THESE STATIONS ARE NOT UNDER NWS QUALITY CONTROL. THEY ALSO MAY NOT
  REPORT WEATHER SUCH AS PRECIPITATION OR FOG.

ILZ001-002-007-009-015-016-024-281400-
NORTHWEST ILLINOIS

CITY           SKY/WX    TMP DP  RH WIND       PRES   REMARKS
MOLINE         LGT RAIN  50  47  89 S13       29.74S
STERLING*      CLOUDY    50  48  93 S7        29.77S
$$

ILZ003-004-008-010-011-017-018-281400-
NORTH CENTRAL ILLINOIS

CITY           SKY/WX    TMP DP  RH WIND       PRES   REMARKS
ROCKFORD       CLOUDY    48  45  89 S13       29.79F
FREEPORT*      CLOUDY    46  45  97 CALM      29.78S FOG
ROCHELLE*      CLOUDY    47  46  97 S15G22    29.78F FOG
DE KALB*       CLOUDY    47  46  96 S16       29.80R FOG
PERU*          CLOUDY    49  47  92 S15       29.81R
$$

ILZ005-006-012>014-019>023-281400-
NORTHEAST ILLINOIS

CITY           SKY/WX    TMP DP  RH WIND       PRES   REMARKS
CHICAGO-OHARE  CLOUDY    50  45  83 S13G22    29.79F
CHICAGO-MIDWAY MOCLDY    50  44  80 S17       29.82F
AURORA         CLOUDY    49  46  90 S13       29.81S
LANSING*       CLOUDY    48  47  96 S14       29.86F
JOLIET*        CLOUDY    51  48  91 S8G16     29.83F
WAUKEGAN       CLOUDY    43  41  93 SE7       29.80F FOG
DUPAGE AIRPORT CLOUDY    49  45  86 S15       29.79F
KANKAKEE*      CLOUDY    49  47  93 S13       29.87F
WHEELING       CLOUDY    49  45  86 S10       29.82F
MORRIS*        MOCLDY    48  46  92 S13       29.80F
ROMEOVILLE*    CLOUDY    48  48 100 S14       29.82F
NORTHERLY ISL    N/A     49  44  83 S15         N/A
$$

LMZ740>746-281400-
SOUTHERN LAKE MICHIGAN

STATION/POSITION SKY/WX   TEMP    WIND        PRES    VSBY  WAVE
                          AIR SEA DIR/SP/G                  HT/PER
                          (F)     (DEG/KT/KT) (MB)    (MI)  (FT/S)
HARRISON CRIB              44     160/ 15/ 17   N/A
BURNHAM HARBOR             49     170/ 11/ 17   N/A
CALUMET HARBOR             49     160/ 12/ 19 1009.9F
BURNS HARBOR               49     170/ 16/ 22 1012.2F
MICHIGAN CITY              48     140/ 13/ 16   N/A
$$

ILZ025>027-034>036-040-047-049-050-058-095>099-281400-
WEST-CENTRAL ILLINOIS

CITY           SKY/WX    TMP DP  RH WIND       PRES   REMARKS
QUINCY         CLOUDY    57  53  86 S13       29.77R
GALESBURG*     CLOUDY    50  49  98 S12       29.77S
MACOMB*        CLOUDY    54  51  90 S13       29.79S
JACKSONVILLE*  CLOUDY    54  52  90 S14G20    29.81F
PITTSFIELD*    CLOUDY    57  54  89 S12       29.80S
$$

ILZ028>032-037-038-041>044-048-051>054-059>061-281400-
CENTRAL ILLINOIS

CITY           SKY/WX    TMP DP  RH WIND       PRES   REMARKS
PONTIAC        CLOUDY    50  49  98 S12       29.85F
BLOOMINGTON    CLOUDY    51  49  92 S17       29.85F
DECATUR        CLOUDY    51  49  92 S14       29.87F
PEORIA         CLOUDY    53  51  93 S13G22    29.81S
LACON*         CLOUDY    52  50  94 S10       29.80R
LINCOLN*       CLOUDY    52  51  96 S12       29.84S
SPRINGFIELD    CLOUDY    54  51  90 S15       29.84S
TAYLORVILLE    CLOUDY    52  51  97 S14       29.86S FOG
$$

ILZ033-039-045-046-055>057-062-063-281400-
EAST-CENTRAL ILLINOIS

CITY           SKY/WX    TMP DP  RH WIND       PRES   REMARKS
CHAMPAIGN      CLOUDY    50  47  89 S15       29.89F
RANTOUL*       CLOUDY    51  50  95 S15       29.89S
MATTOON        CLOUDY    51  50  96 S13       29.90F
PARIS*         CLOUDY    50  49  97 S13       29.94F
$$

ILZ079-100>102-281400-
SOUTHWEST ILLINOIS

CITY           SKY/WX    TMP DP  RH WIND       PRES   REMARKS
ALTON          CLOUDY    54  52  94 S14       29.86F
BELLEVILLE     CLOUDY    55  55 100 VRB5      29.86F
CAHOKIA*       CLOUDY    56  52  86 S7        29.86F
SPARTA*        CLOUDY    54  52  94 S15       29.90F
$$

ILZ064>066-069>071-074>076-080>082-084>086-088>090-092>094-281400-
SOUTH-CENTRAL ILLINOIS

CITY           SKY/WX    TMP DP  RH WIND       PRES   REMARKS
CARBONDALE     CLOUDY    55  55 100 S9        29.94F FOG
CAIRO*         CLOUDY    57  57 100 S7        29.96R FOG
EFFINGHAM*     CLOUDY    52  52  99 SE9       29.94R
MARION         CLOUDY    55  37  50 S6        29.96S FOG
MT. VERNON     LGT RAIN  54  53  97 S14       29.92F
CENTRALIA*     CLOUDY    55  54  94 S14G20    29.90F
SALEM*         CLOUDY    56  52  88 S10       29.91S
METROPOLIS*    CLOUDY    59  58  97 S8        29.97S FOG
$$

ILZ067-068-072-073-078-083-087-091-281400-
SOUTHEAST ILLINOIS

CITY           SKY/WX    TMP DP  RH WIND       PRES   REMARKS
LAWRENCEVILLE  CLOUDY    51  32  48 SE9       29.96F
FLORA*         CLOUDY    53  51  94 S9        29.94S
FAIRFIELD*     TSTM      53  52  96 S5        29.93F
HARRISBURG*    CLOUDY    55  55  97 S7        29.96S
ROBINSON*      CLOUDY    50  49  97 S10       29.96F
CARMI*         TSTM      52  51  97 SE9       29.94F
$$

ABBREVIATIONS USED IN REMARKS
   TC - TEMPERATURE IN CELSIUS
  WCI - WIND CHILL INDEX
   HX - HEAT INDEX
  VSB - VISIBILITY
$$





USA.gov is the U.S. government's official web portal to all federal, state and local government web resources and services.